Regional Weather Roundup
Issued by NWS Cleveland, OH

Home | Current Version | Previous Version | Text Only | Print | Product List | Glossary Off
Versions: 1 2 3 4 5 6 7 8 9 10 11 12 13 14 15 16 17 18 19 20 21 22 23 24 25 26 27 28 29 30 31 32 33 34 35 36 37 38 39 40 41 42 43 44 45 46 47 48 49 50

103
ASUS41 KCLE 240610
RWRCLE
OHIO REGIONAL WEATHER ROUNDUP
NATIONAL WEATHER SERVICE WILMINGTON, OH
100 AM EST FRI NOV 24 2017

NOTE: "FAIR" INDICATES FEW OR NO CLOUDS BELOW 12,000 FEET WITH NO
SIGNIFICANT WEATHER AND/OR OBSTRUCTIONS TO VISIBILITY.

OHZ001>008-015>018-024>027-034-035-043-044-240700-
   NORTHWEST OHIO

CITY           SKY/WX    TMP DP  RH WIND       PRES   REMARKS
DEFIANCE       FAIR      31  24  75 S7        29.96F WCI  24
FINDLAY        FAIR      29  22  75 S9        29.96F WCI  20
TOLEDO EXPRESS FAIR      33  27  78 SW7       29.95F WCI  27
TOLEDO EXEC    FAIR      33  25  72 S10       29.96F WCI  25
LIMA           FAIR      32  25  75 S8        29.97F WCI  25
$$

OHZ009>014-019>023-028>033-038-089-240700-
   NORTHEAST OHIO

CITY           SKY/WX    TMP DP  RH WIND       PRES   REMARKS
CLE-HOPKINS    FAIR      35  25  66 S7        30.01F WCI  29
CLE-LAKEFRONT  FAIR      37  24  59 S12       29.98F
CUY CO. ARPT   NOT AVBL
LORAIN-ELYRIA  FAIR      31  22  69 S7        29.98F WCI  24
ASHTABULA      FAIR      33  25  72 S7        29.99F WCI  27
AKRON-CANTON   FAIR      28  20  71 S7        29.99F WCI  21
WOOSTER        FAIR      29  23  78 S6        29.99F WCI  23
MANSFIELD      FAIR      29  24  82 S6        29.98F WCI  23
YOUNGSTOWN     FAIR      31  22  69 S7        29.99F WCI  24
$$

OHZ042-051>053-060>062-070>072-077>081-240700-
  SOUTHWEST OHIO

CITY           SKY/WX    TMP DP  RH WIND       PRES   REMARKS
CINC-COVINGTON FAIR      30  25  81 S3        30.00S
CINC-LUNKEN    FAIR      28  26  92 CALM      30.04S
HAMILTON       FAIR      27  25  92 CALM      30.03S
DAYTON         FAIR      32  25  75 S6        30.01S WCI  26
WRIGHT-PAT AFB FAIR      29  23  78 CALM      30.01S
DAYTON GENERAL FAIR      33  23  66 CALM      30.00S
WILMINGTON     FAIR      31  24  75 CALM      30.00F
$$

OHZ036-037-039>041-045>050-054>059-063>069-073>076-082>088-240700-
  CENTRAL AND SOUTHEAST OHIO

CITY           SKY/WX    TMP DP  RH WIND       PRES   REMARKS
COLUMBUS       FAIR      29  25  85 E3        30.02F
OSU AIRPORT    FAIR      28  26  92 CALM      30.02S
BOLTON FIELD   FAIR      26  23  88 CALM      30.02S
RICKENBACK AFB FAIR      26  24  91 CALM      30.02S
NEWARK         FAIR      26  22  84 CALM      30.02F
MARION         FAIR      30  24  78 S9        30.00F WCI  22
LANCASTER      FAIR      24  22  91 CALM      30.02F
ZANESVILLE     FAIR      25  20  81 CALM      30.03F
NEW PHILLY     FAIR      27  23  85 SE6       30.03F WCI  20
$$




USA.gov is the U.S. government's official web portal to all federal, state and local government web resources and services.